Flag for Germany Weather past 2 weeks in Idar-Oberstein, Rhineland-Palatinate, Germany

Now
73 °F

Sunny.


Feels Like: 77 °F
Forecast: 55 / 88 °F
Wind: 2 mph from North

Location: Hahn

Current Time: Aug 2, 2015 at 1:13:27 PM

Latest Report: Aug 2, 2015 at 12:20 PM


Visibility: 10 mi

Pressure: 30.15 "Hg

Humidity: 44%

Dew point: 50 °F

Location of Idar-ObersteinLocation

Historic Weather in Idar-Oberstein — Graph

°F

Idar-Oberstein temperature yesterday

Maximum temperature yesterday: 75 °F (at 4:50 PM)
Minimum temperature yesterday: 50 °F (at 6:20 AM)
Average temperature yesterday: 63 °F

Past Weeks' High & Low Weather Summary

 TemperatureHumidityPressure
High84 °F (Jul 21, 6:20 PM)100% (Jul 19, 5:20 AM)30.15 "Hg (Jul 19, 5:20 AM)
Low46 °F (Jul 26, 4:20 AM)29% (Aug 1, 7:20 PM)29.62 "Hg (Jul 27, 4:50 AM)
Average62 °F69%29.94 "Hg
* Reported Jul 18 11:20 AM — Aug 2 11:50 AM, Idar-Oberstein, Weather by CustomWeather, © 2015

Note: Actual official high and low records may vary slightly from our data, if they occured in-between our weather recording intervals... More about our weather records

Advertising

Idar-Oberstein weather history for previous 24 hours

 ConditionsComfort  
Time TempWeatherWind HumidityBarometerVisibility
11:50 AM
Sun, Aug 2
73 °FPassing clouds.5 mph44%30.15 "HgN/A
11:20 AM72 °FSunny.2 mph44%30.15 "Hg10 mi
10:50 AM70 °FPassing clouds.6 mph46%30.15 "HgN/A
10:20 AM68 °FPassing clouds.8 mph49%30.15 "HgN/A
9:50 AM68 °FPassing clouds.7 mph49%30.15 "HgN/A
9:20 AM64 °FPassing clouds.5 mph60%30.15 "HgN/A
8:50 AM61 °FPassing clouds.5 mph68%30.15 "HgN/A
8:20 AM61 °FPassing clouds.5 mph68%30.12 "HgN/A
7:50 AM59 °FPassing clouds.3 mph68%30.12 "HgN/A
7:20 AM55 °FSunny.3 mph77%30.12 "Hg10 mi
6:50 AM54 °FClear.5 mph77%30.12 "Hg10 mi
6:20 AM54 °FClear.2 mph77%30.12 "Hg10 mi
5:50 AM55 °FClear.6 mph72%30.12 "Hg10 mi
5:20 AM55 °FClear.8 mph72%30.09 "Hg10 mi
4:50 AM57 °FClear.7 mph67%30.09 "Hg10 mi
4:20 AM57 °FClear.8 mph67%30.09 "Hg10 mi
3:50 AM57 °FClear.6 mph67%30.09 "Hg10 mi
3:20 AM57 °FPassing clouds.3 mph67%30.09 "HgN/A
2:50 AM59 °FPassing clouds.3 mph63%30.09 "HgN/A
2:20 AM59 °FClear.3 mph63%30.09 "Hg10 mi
1:50 AM59 °FClear.5 mph63%30.09 "Hg10 mi
1:20 AM61 °FClear.6 mph59%30.09 "Hg10 mi
12:50 AM63 °FClear.6 mph56%30.07 "Hg10 mi
11:20 PM
Sat, Aug 1
64 °FClear.7 mph49%30.07 "Hg10 mi
10:20 PM66 °FClear.12 mph49%30.04 "Hg10 mi
9:50 PM66 °FSunny.12 mph49%30.04 "Hg10 mi
9:20 PM68 °FSunny.12 mph46%30.04 "Hg10 mi
8:50 PM68 °FPassing clouds.6 mph46%30.01 "HgN/A
8:20 PM70 °FPassing clouds.6 mph40%30.01 "HgN/A
7:50 PM73 °FSunny.5 mph31%29.98 "Hg10 mi
7:20 PM75 °FPassing clouds.6 mph29%29.98 "HgN/A
6:50 PM75 °FPassing clouds.8 mph31%29.98 "HgN/A
6:20 PM75 °FPassing clouds.7 mph31%29.98 "HgN/A
5:50 PM75 °FPassing clouds.7 mph34%29.98 "HgN/A
5:20 PM75 °FPassing clouds.7 mph34%29.98 "HgN/A
4:50 PM75 °FPassing clouds.6 mph34%29.98 "HgN/A
4:20 PM73 °FSunny.5 mph36%29.98 "Hg10 mi
3:50 PM73 °FSunny.3 mph36%29.98 "Hg10 mi
3:20 PM73 °FSunny.5 mph36%29.98 "Hg10 mi
2:50 PM73 °FSunny.5 mph36%29.98 "Hg10 mi
1:50 PM72 °FPassing clouds.6 mph38%29.98 "HgN/A
1:20 PM72 °FSunny.3 mph38%29.98 "Hg10 mi
Weather by CustomWeather, © 2015

See weather overviewHow to use our weather pages